Voltar ao catálogo

STARLINK-36897

AtivoComunicaçõesVLEO
NORAD 67951·PAYLOAD·🇺🇸 United States

Lançado Feb 24, 2026 de Vandenberg Space Force Base

Loading…

Próximas Passagens (próximas 24 horas)

TLE

AtualizadoSource: CelesTrak SupGP

Época: Sep 14, 2026, 21:33 UTC

1 67951C 26037V   26257.89840278  .00012257  00000+0  44397-3 0  2577
2 67951  43.0036 202.5093 0001397 260.3008 104.3121 15.27569752    18

Acompanhe STARLINK-36897 em tempo real com AllMySat

Download on the App Store